默认 日期 大小 文件数 浏览量 最新下载 xml
roda磁力链接相关资源由用户搜索指令自动获取,结果来源于网络,本站不存储任何资料,亦不承担任何责任,请于24小时内删除,搜索到175个磁力,用时0ms。
    ... .mp3": 7413052, "10 - Sururu Na Roda, Dudu Nobre - Quem É Ela.mp3 ...
创建时间: 2021-09-22 14:24:58 大小:601.93 MB 文件数量:80 热度:5 最近下载:2025-01-02 08:22:04
    ... .mp3": 3290338, "19 - Sururu Na Roda, Dudu Nobre - Quem É Ela.mp3 ...
创建时间: 2021-10-13 06:05:24 大小:550.85 MB 文件数量:81 热度:5 最近下载:2025-01-26 03:02:03
    ... 1 CAPA.jpg": 1620349, "A RODA DO TEMPO 1ª TEMPORADA COMPLETA ... 2 CAPA.jpg": 1621211, "A RODA DO TEMPO 1ª TEMPORADA COMPLETA ... R AUTORADO.iso": 4616413184, "A Roda do Tempo - 1ª Temporada Disco ... R AUTORADO.iso": 4623802368, "A Roda do Tempo - 1ª Temporada Disco ...
创建时间: 2022-01-10 11:49:34 大小:12.9 GB 文件数量:9 热度:6 最近下载:2025-02-04 13:04:06
    ... ção ao Mão na roda AE": {"2. Comece por aqui ...
创建时间: 2022-01-13 19:25:30 大小:5.54 GB 文件数量:109 热度:6 最近下载:2025-02-11 09:35:01
    {"STE-007.wav": 7881758, "STE-011.wav": 32149390, "STE-012.wav": 19294350, "STE-013.wav": 299615046, "STE-014.wav": 67115294, "MVI_0741.MOV": 4132909480, "MVI_0742.MOV": 127082192, "MVI_0743.MOV": 162326844, "MVI_0744.MOV": 137779396, "MVI_0767.MOV": ...
创建时间: 2022-01-28 05:32:27 大小:19.17 GB 文件数量:38 热度:5 最近下载:2025-01-15 19:59:05
    {"Roda do Destino (2021) BDRip [Dublado Portugues] BRAZINO777.avi": 1440870932}
创建时间: 2022-02-06 22:02:53 大小:1.34 GB 文件数量:1 热度:3 最近下载:2025-01-23 13:30:05
    {"STE-007.wav": 7881758, "STE-011.wav": 32149390, "STE-012.wav": 19294350, "STE-013.wav": 299615046, "STE-014.wav": 67115294, "MVI_0741.MOV": 4132909480, "MVI_0742.MOV": 127082192, "MVI_0743.MOV": 162326844, "MVI_0744.MOV": 137779396, "MVI_0767.MOV": ...
创建时间: 2022-02-11 19:33:13 大小:19.17 GB 文件数量:38 热度:8 最近下载:2025-09-19 06:34:06
    {"1.ts": 2820417172, "2.ts": 2931665796}
创建时间: 2022-02-13 05:59:07 大小:5.36 GB 文件数量:2 热度:11 最近下载:2025-08-18 05:18:01
    {"ExYuSubs.txt": 154, "Starac.i.roda.2020.1080p.HDTV.x264.[ExYuSubs].mp4": 1724302844}
创建时间: 2022-02-24 14:46:29 大小:1.61 GB 文件数量:2 热度:4 最近下载:2025-02-24 08:17:02
    ... - Alma Negra.mp3": 8555668, "47 - Roda Ciranda.mp3": 7918228, "51 - Tarde ...
创建时间: 2022-03-09 19:25:40 大小:557.43 MB 文件数量:62 热度:5 最近下载:2025-03-20 01:03:02
    {"Roda do Destino (2021) 720p BDRip [Dublado Portugues] BRAZINO777.mkv": 2070697857}
创建时间: 2022-05-11 16:34:13 大小:1.93 GB 文件数量:1 热度:4 最近下载:2025-01-02 09:35:07
    {"V.A. - RODA DE SAMBA": {"58 - Meu Ébano - ... Que É - Gonzaguinha.mp3": 10372948, "47 - Roda Ciranda - Martinho Da Vila.mp3 ...
创建时间: 2022-05-28 09:22:35 大小:557.39 MB 文件数量:61 热度:6 最近下载:2025-04-02 00:15:03
    ... 2781, "samba de roda.doc": 28160, "samba de roda.jpg": 108918, "~$mba ... de roda.doc": 162, "16 ... tá na lagoa - samba de roda união teodorense.mp3": 6483813 ... lá na lagoa - samba de roda suspiro iguape.mp3": 2225274, "18 ...
创建时间: 2022-06-22 23:21:45 大小:98.99 MB 文件数量:27 热度:10 最近下载:2025-09-18 18:48:01
    {"01. Kazanskij Gennadij - Cena roda.mp3": 39696135, "01.-kazanskij-gennadij-cena-roda_meta.xml": 743, "01.-kazanskij-gennadij-cena-roda_meta.sqlite": 20480}
创建时间: 2022-09-24 22:39:58 大小:37.88 MB 文件数量:3 热度:2 最近下载:2025-01-02 20:22:01
    {"RF-KeFF.jpg": 144162, "SFV-KeFF.sfv": 482, "KeFF-INFO.nfo": 2689, "MP3.part01.rar": 40000000, "MP3.part02.rar": 40000000, "MP3.part03.rar": 40000000, "MP3.part04.rar": 40000000, "MP3.part05.rar": 40000000, "MP3.part06.rar": 40000000, "MP3.part07.rar": ...
创建时间: 2022-09-27 08:02:47 大小:486.33 MB 文件数量:16 热度:5 最近下载:2025-09-20 13:17:05
    {"Covers": {"Wolfhound.jpg": 2256177, "tag.Wolfhound.jpg": 256482, "Wolfhound-[dvd].jpg": 2504423, "Wolfhound-[inlay].jpg": 13148711}, "FullDisc": {"WOLFHOUND_RU": {"VIDEO_TS": {"VIDEO_TS.BUP": 12288, "VIDEO_TS.IFO": 12288, "VTS_01_0.BUP": 112640, " ...
创建时间: 2022-09-30 23:29:37 大小:7.73 GB 文件数量:27 热度:6 最近下载:2025-09-10 23:46:03
    {"Info.txt": 68, "www.shareitall.se.nfo": 15417, "Yvonne Hirdman - Den Röde Grevinnan.txt": 1704, "001-Yvonne_Hirdman-_-Den_roda_grevinnan-SIGNUM.mp3": 132870, "002-Yvonne_Hirdman-_-Den_roda_grevinnan-SIGNUM.mp3": 2831424, "003-Yvonne_Hirdman-_- ...
创建时间: 2022-10-05 18:50:47 大小:463.59 MB 文件数量:177 热度:3 最近下载:2025-01-06 15:49:03
    {"Urbanski M. Ruby on Roda. REST APIs with Roda & Sequel 2021.pdf": 462554}
创建时间: 2022-11-02 09:43:38 大小:451.71 KB 文件数量:1 热度:4 最近下载:2025-01-04 17:36:06
    {"capa.jpg": 54048, "10 Dujii.mp3": 7774048, "16 Silvia.mp3": 5683655, "02 Nervosa.mp3": 5587231, "12 Motéis.mp3": 5580846, "07 Funk Hum.mp3": 5441988, "06 Zambação.mp3": 7741684, "08 Forty Days.mp3": 5050361, "14 Divirta-se.mp3": 4519951, "15 Forty Days. ...
创建时间: 2023-01-06 15:37:44 大小:92.74 MB 文件数量:17 热度:5 最近下载:2025-03-23 12:40:02
    ... Stigmes.mp3": 4801637, "07. Ta Roda Tis Avlis.mp3": 6469923, "08 ...
创建时间: 2023-01-15 06:21:35 大小:56.68 MB 文件数量:13 热度:3 最近下载:2025-02-16 22:18:02